Weather History for High Island 179A, LA

Change the Weather History Date:

Thursday, January 24, 2013

  Actual Average Record
Temperature  
Mean Temperature 66 °F -  
Max Temperature 66 °F - - ()
Min Temperature 66 °F - - ()
Cooling Degree Days 1    
Growing Degree Days 16 (Base 50)    
Moisture  
Dew Point 63 °F    
Average Humidity 88    
Maximum Humidity 88    
Minimum Humidity 88    
Precipitation  
Precipitation 0.00 in - - ()
Sea Level Pressure  
Sea Level Pressure 30.23 in    
Wind  
Wind Speed - (North)    
Max Wind Speed -    
Max Gust Speed -    
Visibility 10 miles    
Events      
T = Trace of Precipitation, MM = Missing Value Source: NWS Daily Summary

Daily Weather History Graph

Daily Weather History Graph

Search for Another Location

Airport:

Trip Planner

Search our weather history database for the weather conditions in past years. The results will help you decide how hot, cold, wet, or windy it might be!

Date:

Astronomy

Jan. 24, 2013 Rise Set
Actual Time 7:10 AM CST 5:50 PM CST
Civil Twilight 6:45 AM CST 6:15 PM CST
Nautical Twilight 6:16 AM CST 6:44 PM CST
Astronomical Twilight 5:48 AM CST 7:12 PM CST
Moon 3:55 PM CST (1/24) 5:06 AM CST (1/24)
Length of Visible Light 11h 29m
Length of Day
10h 39m
Waxing Gibbous, 94% of the Moon is Illuminated
Jan 24
Waxing Gibbous
Jan 26
Full
Feb 3
Last Quarter
Feb 10
New
Feb 17
First Quarter

Hourly Weather History & Observations

Time (CST) Temp. Dew Point Humidity Pressure Visibility Wind Dir Wind Speed Gust Speed Precip Events Conditions
12:15 AM 66.2 °F 62.6 °F 88% 30.24 in 10.0 mi North - - N/A   Unknown
12:35 AM 66.2 °F 62.6 °F 88% 30.24 in 10.0 mi North - - N/A   Unknown
12:55 AM 66.2 °F 62.6 °F 88% 30.24 in 10.0 mi North - - N/A   Unknown
1:15 AM 66.2 °F 62.6 °F 88% 30.25 in 10.0 mi North - - N/A   Unknown
1:35 AM 66.2 °F 62.6 °F 88% 30.25 in 10.0 mi North - - N/A   Unknown
1:55 AM 66.2 °F 62.6 °F 88% 30.24 in 10.0 mi North - - N/A   Clear
2:15 AM 66.2 °F 62.6 °F 88% 30.24 in 10.0 mi North - - N/A   Clear
2:35 AM 66.2 °F 62.6 °F 88% 30.24 in 10.0 mi North - - N/A   Clear
2:55 AM 66.2 °F 62.6 °F 88% 30.23 in 10.0 mi North - - N/A   Unknown
3:15 AM 66.2 °F 62.6 °F 88% 30.23 in 10.0 mi North - - N/A   Unknown
3:35 AM 66.2 °F 62.6 °F 88% 30.23 in 10.0 mi North - - N/A   Unknown
3:55 AM 66.2 °F 62.6 °F 88% 30.23 in 10.0 mi North - - N/A   Unknown
4:15 AM 66.2 °F 62.6 °F 88% 30.23 in 10.0 mi North - - N/A   Unknown
4:35 AM 66.2 °F 62.6 °F 88% 30.23 in 10.0 mi North - - N/A   Unknown
4:55 AM 66.2 °F 62.6 °F 88% 30.23 in 10.0 mi North - - N/A   Clear
5:15 AM 66.2 °F 62.6 °F 88% 30.24 in 10.0 mi North - - N/A   Clear
5:35 AM 66.2 °F 62.6 °F 88% 30.24 in 10.0 mi North - - N/A   Unknown
5:55 AM 66.2 °F 62.6 °F 88% 30.24 in 10.0 mi North - - N/A   Unknown
6:15 AM 66.2 °F 62.6 °F 88% 30.24 in 10.0 mi North - - N/A   Unknown
6:35 AM 66.2 °F 62.6 °F 88% 30.24 in 10.0 mi North - - N/A   Unknown
6:55 AM 66.2 °F 62.6 °F 88% 30.25 in 10.0 mi North - - N/A   Unknown
7:10 AM 66.2 °F 62.6 °F 88% 30.25 in 10.0 mi North - - N/A   Unknown
7:35 AM 66.2 °F 62.6 °F 88% 30.25 in 7.0 mi North - - N/A   Unknown
7:55 AM 66.2 °F 62.6 °F 88% 30.25 in 9.0 mi North - - N/A   Clear
8:15 AM 66.2 °F 62.6 °F 88% 30.26 in 9.0 mi North - - N/A   Clear
8:35 AM 66.2 °F 62.6 °F 88% 30.27 in 9.0 mi North - - N/A   Clear
8:55 AM 66.2 °F 62.6 °F 88% 30.28 in 8.0 mi North - - N/A   Scattered Clouds
9:15 AM 66.2 °F 62.6 °F 88% 30.29 in 8.0 mi North - - N/A   Mostly Cloudy
9:35 AM 66.2 °F 62.6 °F 88% 30.29 in 9.0 mi North - - N/A   Partly Cloudy
9:55 AM 66.2 °F 62.6 °F 88% 30.30 in 9.0 mi North - - N/A   Clear
10:15 AM 66.2 °F 62.6 °F 88% 30.31 in 9.0 mi North - - N/A   Clear
10:35 AM 66.2 °F 62.6 °F 88% 30.31 in 9.0 mi North - - N/A   Mostly Cloudy
10:55 AM 66.2 °F 62.6 °F 88% 30.30 in 10.0 mi North - - N/A   Overcast
11:15 AM 66.2 °F 62.6 °F 88% 30.29 in 9.0 mi North - - N/A   Overcast
11:35 AM 66.2 °F 62.6 °F 88% 30.28 in 9.0 mi North - - N/A   Overcast
11:55 AM 66.2 °F 62.6 °F 88% 30.27 in 10.0 mi North - - N/A   Mostly Cloudy
12:15 PM 66.2 °F 62.6 °F 88% 30.26 in 10.0 mi North - - N/A   Clear
12:35 PM 66.2 °F 62.6 °F 88% 30.25 in 9.0 mi North - - N/A   Clear
12:55 PM 66.2 °F 62.6 °F 88% 30.24 in 10.0 mi North - - N/A   Clear
1:15 PM 66.2 °F 62.6 °F 88% 30.24 in 10.0 mi North - - N/A   Clear
1:35 PM 66.2 °F 62.6 °F 88% 30.23 in 10.0 mi North - - N/A   Partly Cloudy
1:55 PM 66.2 °F 62.6 °F 88% 30.23 in 10.0 mi North - - N/A   Mostly Cloudy
2:15 PM 66.2 °F 62.6 °F 88% 30.21 in 10.0 mi North - - N/A   Scattered Clouds
2:35 PM 66.2 °F 62.6 °F 88% 30.20 in 10.0 mi North - - N/A   Clear
2:55 PM 66.2 °F 62.6 °F 88% 30.20 in 9.0 mi North - - N/A   Clear
3:15 PM 66.2 °F 62.6 °F 88% 30.19 in 10.0 mi North - - N/A   Clear
3:35 PM 66.2 °F 62.6 °F 88% 30.19 in 10.0 mi North - - N/A   Clear
3:55 PM 66.2 °F 62.6 °F 88% 30.19 in 10.0 mi North - - N/A   Clear
4:15 PM 66.2 °F 62.6 °F 88% 30.18 in 10.0 mi North - - N/A   Clear
4:55 PM 66.2 °F 62.6 °F 88% 30.19 in 10.0 mi North - - N/A   Clear
5:15 PM 66.2 °F 62.6 °F 88% 30.19 in 10.0 mi North - - N/A   Clear
5:35 PM 66.2 °F 62.6 °F 88% 30.18 in 10.0 mi North - - N/A   Clear
5:55 PM 66.2 °F 62.6 °F 88% 30.19 in 10.0 mi North - - N/A   Clear
6:15 PM 66.2 °F 62.6 °F 88% 30.19 in 10.0 mi North - - N/A   Clear
6:35 PM 66.2 °F 62.6 °F 88% 30.19 in 10.0 mi North - - N/A   Clear
6:55 PM 66.2 °F 62.6 °F 88% 30.19 in 10.0 mi North - - N/A   Clear
7:15 PM 66.2 °F 62.6 °F 88% 30.20 in 10.0 mi North - - N/A   Clear
7:35 PM 66.2 °F 62.6 °F 88% 30.20 in 10.0 mi North - - N/A   Unknown
7:55 PM 66.2 °F 62.6 °F 88% 30.20 in 10.0 mi North - - N/A   Unknown
8:15 PM 66.2 °F 62.6 °F 88% 30.20 in - North - - N/A   Unknown
8:35 PM 66.2 °F 62.6 °F 88% 30.19 in 10.0 mi North - - N/A   Unknown
8:55 PM 66.2 °F 62.6 °F 88% 30.19 in 10.0 mi North - - N/A   Unknown
9:15 PM 66.2 °F 62.6 °F 88% 30.19 in 10.0 mi North - - N/A   Unknown
9:35 PM 66.2 °F 62.6 °F 88% 30.19 in 10.0 mi North - - N/A   Unknown
9:55 PM 66.2 °F 62.6 °F 88% 30.19 in 10.0 mi North - - N/A   Unknown
10:15 PM 66.2 °F 62.6 °F 88% 30.19 in 10.0 mi North - - N/A   Unknown
10:35 PM 66.2 °F 62.6 °F 88% 30.19 in 10.0 mi North - - N/A   Unknown
10:55 PM 66.2 °F 62.6 °F 88% 30.18 in 10.0 mi North - - N/A   Unknown
11:15 PM 66.2 °F 62.6 °F 88% 30.17 in 10.0 mi North - - N/A   Unknown
11:35 PM 66.2 °F 62.6 °F 88% 30.17 in 10.0 mi North - - N/A   Unknown
11:55 PM 66.2 °F 62.6 °F 88% 30.17 in 10.0 mi North - - N/A   Clear